Location: Palomar Mountain Lodge
(33.3110°N, 116.8495°W)
Time: 23:49:24
(UTC-07:00)

Cosmos 2263 - Pass Details

Date: 12 July 2018
Orbit: 831 x 866 km, 70.9° (Epoch: 15 July)

Event Time Altitude Azimuth Distance (km) Brightness Sun altitude
Rises 20:46:45 0° 199° (SSW) 3,354 7.2 -9.5°
Reaches altitude 10° 20:49:09 10° 199° (SSW) 2,425 6.4 -9.9°
Maximum altitude 20:54:43 90° 131° (SE) 837 4.2 -10.8°
Drops below altitude 10° 21:00:22 10° 21° (NNE) 2,454 6.8 -11.8°
Sets 21:02:49 0° 21° (NNE) 3,396 7.6 -12.2°
